Location: Beuvrequen
(50.8014°N, 1.6652°E)
Time: 03:54:03
(UTC+00:00)

SJ-6B - Pass Details

Date: 16 October 2021
Orbit: 510 x 579 km, 97.5° (Epoch: 05 December)

Event Time Altitude Azimuth Distance (km) Brightness Sun altitude
Exits shadow 19:21:03 39° 9° (N) 818 3.6 -23.1°
Drops below altitude 10° 19:23:38 10° 352° (N) 1,795 5.7 -23.5°
Sets 19:25:45 0° 350° (N) 2,679 6.7 -23.9°
